Flag for U.S.A. Weather past 2 weeks in Mobile, Alabama, U.S.A.

Now
73 °F

Light rain. Clear.


Feels Like: 69 °F
Forecast: 72 / 90 °F
Wind: 6 mph from Northwest

Location: Mobile Downtown Airport

Current Time: Sep 16, 2014 at 10:34:26 PM

Latest Report: Sep 16, 2014 at 9:53 PM


Visibility: 10 mi

Pressure: 30.03 "Hg

Humidity: 97%

Dew point: 72 °F

Location of MobileLocation

Historic Weather in Mobile — Graph

°F

Mobile temperature yesterday

Maximum temperature yesterday: 88 °F (at 11:53 AM)
Minimum temperature yesterday: 75 °F (at 4:53 AM)
Average temperature yesterday: 82 °F

Past Weeks' High & Low Weather Summary

 TemperatureHumidityPressure
High91 °F (Sep 3, 3:53 PM)100% (Sep 2, 6:53 AM)30.16 "Hg (Sep 2, 6:53 AM)
Low71 °F (Sep 14, 6:53 AM)47% (Sep 3, 3:53 PM)29.92 "Hg (Sep 7, 4:53 PM)
Average81 °F81%30.03 "Hg
* Reported Sep 1 8:53 PM — Sep 16 8:53 PM, Mobile, Weather by CustomWeather, © 2014

Note: Actual official high and low records may vary slightly from our data, if they occured in-between our weather recording intervals... More about our weather records

Advertising

Mobile weather history for previous 24 hours

 ConditionsComfort  
Time TempWeatherWind HumidityBarometerVisibility
8:53 PM
Sep 16
73 °FLight rain. Passing clouds.7 mph100%30.01 "Hg7 mi
7:53 PM73 °FLight rain. Passing clouds.5 mph100%30.00 "Hg10 mi
6:53 PM73 °FLight rain. Passing clouds.7 mph97%29.99 "Hg10 mi
5:53 PM74 °FMore clouds than sun.3 mph94%29.99 "Hg10 mi
5:00 PM73 °FStrong thunderstorms. Fog.6 mph100%30.01 "Hg1 mi
3:53 PM77 °FStrong thunderstorms. Fog.14 mph94%29.98 "Hg2 mi
2:53 PM87 °FBroken clouds.5 mph69%29.98 "Hg10 mi
1:53 PM90 °FBroken clouds.No wind57%29.99 "Hg10 mi
12:53 PM88 °FBroken clouds.6 mph65%30.03 "Hg10 mi
11:53 AM86 °FBroken clouds.6 mph72%30.06 "Hg10 mi
10:53 AM86 °FPassing clouds.7 mph70%30.07 "Hg10 mi
9:53 AM84 °FPassing clouds.7 mph72%30.07 "Hg10 mi
8:53 AM82 °FPassing clouds.7 mph77%30.08 "Hg10 mi
7:53 AM77 °FPassing clouds.7 mph94%30.06 "Hg10 mi
6:53 AM75 °FPassing clouds.6 mph100%30.07 "Hg10 mi
5:53 AM75 °FClear.5 mph100%30.06 "Hg10 mi
4:53 AM75 °FClear.3 mph100%30.05 "Hg10 mi
3:53 AM75 °FClear.No wind100%30.05 "Hg10 mi
2:53 AM76 °FClear.No wind100%30.06 "Hg10 mi
1:53 AM77 °FClear.5 mph96%30.07 "Hg10 mi
12:53 AM80 °FClear.No wind90%30.07 "Hg10 mi
11:53 PM
Sep 15
80 °FPassing clouds.5 mph90%30.09 "Hg10 mi
10:53 PM80 °FClear.No wind87%30.10 "Hg10 mi
Weather by CustomWeather, © 2014

See weather overviewHow to use our weather pages